STARLINK-11444 [DTC] (62409 NORAD) Tracking and Keplerian Element Data

This shows tracking and keplerian element data for the satellite.

Feedback or suggestion? Click here.




ElementValue
Catalog62409
NameSTARLINK-11444 [DTC]
Epoch Orbit683
Epoch Day35.10664976
Epoch Year2025
RAAN51.1042
Inclination42.9977
Eccentricity0.0002455
Argument of Perigee284.121
Mean Anonmoly75.9387
Mean Motion15.77846304
Decay Rate2.03E-05
L11 62409U 24249A 25035.10664976 .00002030 00000+0 14542-4 0 9990
L22 62409 42.9977 51.1042 0002455 284.1210 75.9387 15.77846304 6839



Live tracking and technical data element details for STARLINK-11444 [DTC] (NORAD 62409). STARLINK-11444 [DTC] can be tracked NOW for your location showing map with azimuth and elevation plus other details from your city location.







IsCatalogInMostPopularTable: catalog: 62409, numindb: 19
Update: records affected: 1



GetName: 62409 STARLINK-11444 [DTC]

Hit Count: updated at: Sat, 24 May 2025 15:53:46 GMT